[[{"header":{"parameterUnit":"m.s-1","parameterCategory":1,"la1":30.2991,"la2":30.254,"lo1":-89.0895,"lo2":-89.0444,"dy":0.0017,"dx":0.0017,"nx":28,"ny":28,"refTime":"2025-06-21T09:00:00:Z","depth":0,"parameterNumber":2,"parameterNumberName":"U-component_of_WINDS"},"data":[0,0,0,0,0,0,0,0,0,0,0,0,0,0,0,0,0,0,0,0,0,0,0,0,0,0,0,0,0,0,0,0,0,0,0,0,0,0,0,0,0,0,0,0,0,0,0,0,0,0,0,0,0,0,0,0,0,0,2.7532,2.7532,0,2.756,2.756,2.756,2.7478,2.7476,2.7473,2.7471,2.75,2.7503,2.7506,0,0,0,0,0,0,0,0,0,0,0,0,0,2.7406,2.7409,2.7532,2.7532,2.7533,2.756,2.756,2.7561,2.7479,2.7476,2.7473,2.747,2.7499,2.7503,2.7506,0,0,0,0,0,0,0,0,0,0,0,0,0,2.745,2.741,2.7532,2.7495,2.7492,2.756,2.756,2.7561,2.7479,2.7476,2.7472,2.7468,2.7498,2.7502,2.7507,2.7611,0,0,2.7521,2.7523,0,0,0,0,0,0,0,0,2.7448,2.7455,2.75,2.7498,2.7495,2.7512,2.7526,2.7578,2.748,2.7484,2.7471,2.7466,2.7507,2.7511,2.7524,2.7613,2.7614,2.7521,2.7524,2.7526,2.7528,0,0,0,0,0,0,0,2.7445,2.7453,2.7543,2.7501,2.7498,2.7477,2.7479,2.7536,2.7516,2.7484,2.7478,2.7482,2.7505,2.752,2.7524,2.7614,2.7521,2.7526,2.7528,2.753,2.7786,2.779,0,0,0,0,0,0,2.7447,2.7451,2.7542,2.7544,2.7461,2.7482,2.7484,2.751,2.7516,2.7513,2.7485,2.7478,2.7514,2.7519,2.7525,2.7644,2.7526,2.7531,2.7533,2.7782,2.7787,2.7791,0,0,0,0,0,0,2.7445,2.7456,2.7541,2.7496,2.7505,2.7488,2.7518,2.7513,2.7527,2.7517,2.7513,2.7504,2.7511,2.7518,2.7589,2.7644,2.7533,2.7537,2.7777,2.7783,2.7789,2.7885,0,0,0,0,0,0,2.7441,2.7455,2.7496,2.7498,2.7508,2.7606,2.7521,2.7516,2.7536,2.7527,2.7534,2.7531,2.7508,2.7583,2.7594,2.7648,2.7541,2.7772,2.778,2.7787,2.7877,2.7894,2.7908,0,0,0,0,0,2.7437,2.7523,2.7498,2.7509,2.7558,2.7609,2.7615,2.7587,2.7541,2.758,2.7573,2.7531,2.7637,2.7591,2.7603,2.7659,2.7768,2.7778,2.7786,2.787,2.7891,2.7908,0,0,0,0,0,0,2.7528,2.7522,2.7495,2.7584,2.7597,2.7595,2.7644,2.761,2.7637,2.7628,2.7592,2.7594,2.7671,2.7673,2.7622,2.7759,2.7695,2.7706,2.7754,2.7774,2.7789,2.7785,2.7545,0,0,0,0,0,2.7559,2.7601,2.7594,2.7673,2.7681,2.7662,2.7683,2.766,2.7673,2.7678,2.7676,2.769,2.7726,2.775,2.7783,2.7878,2.7876,2.7923,2.7938,2.7951,2.796,2.8007,2.8026,2.782,2.782,2.782,0,0,2.7622,2.7624,2.7653,2.7691,2.7699,2.7742,2.7667,2.7717,2.7748,2.7686,2.7751,2.7751,2.7764,2.7846,2.7882,2.785,2.8017,2.7962,2.7973,2.7975,2.8018,2.8037,2.8055,2.7826,2.7825,2.7824,0,0,2.7758,2.7766,2.783,2.7839,2.7852,2.7838,2.7854,2.7856,2.7853,2.7918,2.7871,2.7908,2.7972,2.7982,2.7995,2.8133,2.8095,2.8145,2.8225,2.8271,2.8287,2.8301,2.8346,2.8363,2.8156,2.8156,2.8156,0,2.7835,2.7899,2.7868,2.792,2.7937,2.7882,2.7945,2.7956,2.7979,2.7991,2.7955,2.8031,2.8037,2.8118,2.8152,2.8166,2.818,2.8143,2.8287,2.8301,2.8313,2.8356,2.8374,2.8162,2.8161,2.816,2.816,0,2.7991,2.8036,2.8086,2.8107,2.8131,2.8189,2.8165,2.8192,2.8167,2.8157,2.8223,2.8227,2.8258,2.8277,2.8254,2.8354,2.8333,2.8293,2.8227,2.8339,2.8378,2.8395,2.817,2.8168,2.8166,2.8165,0,0,2.8184,2.8187,2.8205,2.8213,2.8222,2.8255,2.831,2.834,2.8361,2.838,2.8422,2.8477,2.8438,2.8454,2.8431,2.8472,2.8576,2.8426,2.8425,2.845,2.8683,2.871,2.873,2.8552,2.8555,2.8557,2.868,0,2.8315,2.8408,2.838,2.8473,2.8512,2.846,2.8507,2.8517,2.8509,2.854,2.8531,2.8569,2.8518,2.8526,2.8564,2.8555,2.8621,2.8547,2.8589,2.8591,2.8583,2.8751,2.8781,2.8897,2.8696,2.8699,2.8701,0,2.848,2.8502,2.8598,2.8597,2.8612,2.8655,2.8677,2.871,2.8719,2.871,2.8727,2.8695,2.8747,2.8684,2.8754,2.8703,2.8719,2.8718,2.8721,2.8721,2.865,2.8752,2.8933,2.8949,2.8725,2.8723,2.8722,0,2.8606,2.866,2.8723,2.8732,2.8734,2.8764,2.8767,2.8772,2.8791,2.8811,2.8822,2.885,2.8864,2.8885,2.8861,2.8818,2.8933,2.8869,2.8925,2.8925,2.8949,2.8947,2.9131,2.8966,2.8966,2.8966,2.8965,0,2.8752,2.8812,2.8779,2.8818,2.8882,2.885,2.8915,2.8912,2.8917,2.8953,2.8911,2.8946,2.8914,2.8946,2.8928,2.8986,2.8994,2.8987,2.898,2.8988,2.8988,2.8995,2.8985,2.897,2.8969,2.8968,2.8967,0,2.8903,2.8884,2.8948,2.8944,2.8944,2.8992,2.8987,2.9022,2.9011,2.9057,2.9066,2.9048,2.9083,2.9062,2.9098,2.9086,2.916,2.9145,2.9156,2.9151,2.9207,2.92,2.9399,2.9422,2.9246,2.9248,2.9249,0,2.8995,2.904,2.9039,2.906,2.9064,2.9099,2.9116,2.9087,2.9107,2.912,2.9153,2.9184,2.9207,2.9264,2.9254,2.9281,2.9264,2.9332,2.9267,2.9272,2.9259,2.9255,2.9258,2.9343,2.9345,2.9347,2.9348,0,2.9161,2.9148,2.9175,2.9198,2.922,2.9238,2.9251,2.9271,2.9241,2.9266,2.93,2.9318,2.9353,2.9383,2.9405,2.9407,2.9372,2.9369,2.9383,2.9389,2.9392,2.9387,2.9187,2.9364,2.9362,2.9361,2.936,2.936,2.9282,2.9317,2.9321,2.9352,2.9359,2.9372,2.9403,2.9395,2.9423,2.9448,2.943,2.947,2.9476,2.9502,2.9508,2.9538,2.951,2.9531,2.9536,2.954,2.9546,2.939,2.9543,2.9542,2.9542,2.9541,2.9541,0,2.9441,2.944,2.9469,2.9488,2.9512,2.9478,2.9491,2.9512,2.9547,2.9556,2.9579,2.9617,2.9646,2.9638,2.9663,2.9688,2.9673,2.9696,2.9691,2.9691,2.9571,2.9555,2.9707,2.9707,2.9707,2.9707,2.9707,2.9707,2.9526,2.9582,2.957,2.9629,2.9628,2.9666,2.9676,2.9687,2.9693,2.9737,2.976,2.9755,2.9756,2.9781,2.9805,2.9802,2.9811,2.9839,2.983,2.9717,2.9701,2.9685,2.9669,2.9843,2.9843,2.9947,2.9948,2.9949]},{"header":{"parameterUnit":"m.s-1","parameterCategory":1,"la1":30.2991,"la2":30.254,"lo1":-89.0895,"lo2":-89.0444,"dy":0.0017,"dx":0.0017,"nx":28,"ny":28,"refTime":"2025-06-21T09:00:00:Z","depth":0,"parameterNumber":3,"parameterNumberName":"V-component_of_WINDS"},"data":[0,0,0,0,0,0,0,0,0,0,0,0,0,0,0,0,0,0,0,0,0,0,0,0,0,0,0,0,0,0,0,0,0,0,0,0,0,0,0,0,0,0,0,0,0,0,0,0,0,0,0,0,0,0,0,0,0,0,2.0684,2.0686,0,2.0803,2.0804,2.0806,2.0827,2.0826,2.0825,2.0824,2.0941,2.0945,2.0949,0,0,0,0,0,0,0,0,0,0,0,0,0,2.047,2.0474,2.0684,2.0686,2.0687,2.0803,2.0804,2.0806,2.0827,2.0826,2.0825,2.0823,2.094,2.0945,2.095,0,0,0,0,0,0,0,0,0,0,0,0,0,2.0573,2.0476,2.0684,2.0712,2.0715,2.0803,2.0805,2.0806,2.0827,2.0826,2.0824,2.0823,2.0938,2.0944,2.095,2.1017,0,0,2.0969,2.0971,0,0,0,0,0,0,0,0,2.0568,2.0581,2.0706,2.071,2.0714,2.0799,2.0772,2.0877,2.0828,2.0785,2.0824,2.0822,2.0895,2.0904,2.093,2.1023,2.1028,2.0969,2.0973,2.0976,2.0977,0,0,0,0,0,0,0,2.056,2.0576,2.0731,2.0708,2.0713,2.0716,2.0729,2.0792,2.0846,2.0788,2.079,2.0804,2.0897,2.0924,2.0933,2.1029,2.0969,2.0975,2.0978,2.0981,2.118,2.1181,0,0,0,0,0,0,2.0549,2.057,2.0727,2.0735,2.0636,2.0721,2.0736,2.0773,2.0846,2.0855,2.0805,2.0805,2.0914,2.0925,2.0937,2.1018,2.0976,2.0981,2.0985,2.1178,2.118,2.1182,0,0,0,0,0,0,2.0544,2.0563,2.0723,2.0653,2.0674,2.0727,2.0768,2.0776,2.0803,2.0859,2.0868,2.0823,2.0913,2.0928,2.0997,2.1022,2.0984,2.0989,2.1176,2.1179,2.1181,2.1182,0,0,0,0,0,0,2.0538,2.0561,2.0588,2.0654,2.0677,2.0782,2.077,2.0779,2.0814,2.0815,2.0878,2.0887,2.0913,2.0987,2.1003,2.103,2.0994,2.1174,2.1177,2.118,2.118,2.1184,2.1188,0,0,0,0,0,2.053,2.0584,2.059,2.0609,2.0713,2.0784,2.0797,2.0828,2.0816,2.0843,2.0878,2.0885,2.1017,2.0994,2.1012,2.1041,2.1172,2.1176,2.118,2.1178,2.1183,2.1188,0,0,0,0,0,0,2.052,2.0593,2.06,2.0677,2.0724,2.0787,2.0822,2.0832,2.0883,2.0881,2.0915,2.0929,2.0995,2.1025,2.0998,2.1108,2.1094,2.1101,2.1086,2.1092,2.1096,2.1087,2.0999,0,0,0,0,0,2.0526,2.0579,2.064,2.0701,2.0724,2.0769,2.0801,2.082,2.087,2.089,2.093,2.0976,2.1028,2.1062,2.1113,2.1184,2.1197,2.1213,2.1217,2.122,2.1225,2.1263,2.127,2.1194,2.1194,2.1194,0,0,2.054,2.0587,2.0618,2.07,2.0739,2.0791,2.0786,2.0842,2.088,2.0898,2.0965,2.0995,2.105,2.1119,2.1152,2.1146,2.1249,2.1224,2.1226,2.1231,2.1267,2.1274,2.1281,2.1197,2.1196,2.1196,0,0,2.0592,2.0633,2.0688,2.0727,2.0786,2.0815,2.0828,2.0889,2.0911,2.0979,2.0992,2.1037,2.1127,2.1164,2.1195,2.1258,2.1265,2.1273,2.1294,2.133,2.1336,2.1342,2.1362,2.137,2.1279,2.1279,2.1279,0,2.0601,2.0682,2.0714,2.0769,2.0804,2.0823,2.0877,2.0913,2.0985,2.1007,2.1,2.1111,2.1149,2.1226,2.1242,2.1266,2.128,2.1266,2.1333,2.1339,2.1344,2.1364,2.1372,2.1279,2.1279,2.1279,2.1279,0,2.069,2.0745,2.0782,2.0851,2.089,2.0944,2.0983,2.1018,2.1033,2.1062,2.1129,2.1175,2.1235,2.1254,2.127,2.1333,2.1328,2.1326,2.1313,2.1351,2.1371,2.1379,2.128,2.128,2.128,2.128,0,0,2.0739,2.0825,2.0838,2.0868,2.0934,2.0976,2.103,2.1089,2.1117,2.1166,2.121,2.1284,2.1283,2.1318,2.1337,2.1369,2.1413,2.1363,2.1365,2.137,2.1483,2.1483,2.1492,2.1419,2.142,2.1422,2.1478,0,2.0798,2.0896,2.0926,2.1007,2.1057,2.1075,2.1121,2.1165,2.1193,2.1238,2.1269,2.132,2.1315,2.1336,2.1368,2.1401,2.1436,2.1398,2.1458,2.146,2.1444,2.1503,2.1503,2.1555,2.1486,2.1488,2.1489,0,2.088,2.093,2.1016,2.1073,2.1096,2.1137,2.1192,2.1236,2.1285,2.1303,2.1341,2.1357,2.1411,2.1394,2.1468,2.1441,2.1467,2.1487,2.149,2.1496,2.1476,2.1509,2.1572,2.1579,2.1501,2.15,2.1499,0,2.0905,2.0994,2.1057,2.1083,2.1151,2.118,2.1209,2.1257,2.129,2.1337,2.1358,2.1411,2.144,2.148,2.1509,2.1494,2.1579,2.1566,2.1594,2.1593,2.1611,2.1609,2.1678,2.1629,2.1629,2.1629,2.1629,0,2.0967,2.1019,2.1069,2.1108,2.1165,2.1197,2.1253,2.1283,2.1325,2.1368,2.1386,2.1426,2.1463,2.1506,2.1529,2.1586,2.1599,2.1613,2.1619,2.1611,2.1609,2.1629,2.1625,2.1631,2.1631,2.163,2.163,0,2.1005,2.1041,2.111,2.1169,2.1185,2.1225,2.1274,2.1311,2.1339,2.1393,2.1407,2.1451,2.1503,2.1536,2.1603,2.1618,2.1679,2.1684,2.1663,2.1665,2.1691,2.1688,2.1774,2.1786,2.173,2.1731,2.1731,0,2.1042,2.1082,2.1145,2.1175,2.1205,2.1254,2.1288,2.132,2.1354,2.1412,2.1441,2.1494,2.1539,2.1621,2.1658,2.1708,2.1713,2.174,2.1721,2.1711,2.1712,2.1708,2.1712,2.1743,2.1743,2.1743,2.1744,0,2.1102,2.1118,2.1166,2.122,2.1259,2.1303,2.1347,2.137,2.1409,2.1446,2.15,2.1535,2.1602,2.1654,2.1707,2.1736,2.1745,2.1749,2.1758,2.1751,2.1737,2.1743,2.167,2.1747,2.1747,2.1747,2.1746,2.1746,2.114,2.1176,2.1225,2.1278,2.1314,2.1353,2.139,2.1423,2.1469,2.1527,2.1543,2.1599,2.1644,2.1717,2.1746,2.1788,2.1785,2.1798,2.1801,2.1804,2.1803,2.173,2.1798,2.1798,2.1798,2.1798,2.1798,0,2.1201,2.1233,2.1281,2.1341,2.1381,2.1388,2.1436,2.1469,2.1518,2.156,2.1604,2.1664,2.1715,2.1754,2.1805,2.1832,2.1837,2.1844,2.1842,2.1848,2.1805,2.1791,2.1838,2.1838,2.1838,2.1838,2.1838,2.1838,2.1237,2.1297,2.1318,2.1395,2.1427,2.1482,2.1509,2.1545,2.1578,2.1646,2.1688,2.1713,2.1754,2.1808,2.1853,2.1863,2.188,2.1886,2.1896,2.1855,2.1851,2.1847,2.1834,2.189,2.189,2.1936,2.1936,2.1937]}]]